Location: Zagreb
(45.8000°N, 16.0000°E)
Time: 01:59:57
(UTC+02:00)

Transit 2A Rocket - Pass Details

Date: 29 January 2022
Orbit: 592 x 909 km, 66.7° (Epoch: 26 May)

Event Time Altitude Azimuth Distance (km) Brightness Sun altitude
Rises 19:53:14 0° 264° (W) 3,529 9.5 -30.7°
Reaches altitude 10° 19:56:28 10° 280° (W) 2,598 8.6 -31.2°
Maximum altitude 20:00:51 20° 327° (NNW) 1,965 7.4 -32.0°
Enters shadow 20:03:38 15° 360° (N) 2,230 7.4 -32.5°
Drops below altitude 10° 20:05:11 10° 13° (NNE) 2,565 - -32.7°
Sets 20:08:23 0° 30° (NNE) 3,470 - -33.3°
